ANZ948 NZCH-NZQN

Flight info

Callsign ANZ948
Flight time 0h 40m
Altitude 26000
Route GUPUT Y266 ELRUV
Aircraft A20N/M-SDE2E3FGHIRWXY/LB1

Departure

Time 2026-04-28 01:53
Airport Christchurch International Airport (NZCH)

Arrival

Time 2026-04-28 02:33
Airport Queenstown Airport (NZQN)
Time Latitude Longitude Altitude Speed Heading
2026-04-28 01:41 -43.48789 172.53821 120 ft 0 kts 107°
2026-04-28 01:43 -43.48787 172.53813 120 ft 2 kts 108°
2026-04-28 01:43 -43.48782 172.53791 116 ft 2 kts 108°
2026-04-28 01:44 -43.48777 172.53769 118 ft 2 kts 108°
2026-04-28 01:44 -43.48770 172.53747 119 ft 3 kts 134°
2026-04-28 01:44 -43.48755 172.53734 120 ft 3 kts 173°
2026-04-28 01:44 -43.48737 172.53737 118 ft 3 kts 212°
2026-04-28 01:45 -43.48731 172.53743 117 ft 0 kts 228°
2026-04-28 01:46 -43.48733 172.53740 116 ft 3 kts 225°
2026-04-28 01:47 -43.48767 172.53716 117 ft 2 kts 191°
2026-04-28 01:47 -43.48791 172.53699 122 ft 4 kts 256°
2026-04-28 01:47 -43.48768 172.53680 120 ft 8 kts 27°
2026-04-28 01:47 -43.48688 172.53773 116 ft 23 kts 40°
2026-04-28 01:48 -43.48575 172.53906 115 ft 17 kts 39°
2026-04-28 01:48 -43.48450 172.54061 111 ft 31 kts 42°
2026-04-28 01:48 -43.48264 172.54284 111 ft 40 kts 41°
2026-04-28 01:48 -43.48031 172.54555 109 ft 47 kts 40°
2026-04-28 01:49 -43.47792 172.54838 103 ft 33 kts 40°
2026-04-28 01:49 -43.47678 172.54915 102 ft 16 kts 351°
2026-04-28 01:49 -43.47628 172.54897 101 ft 0 kts 344°
2026-04-28 01:51 -43.47603 172.54888 101 ft 8 kts 344°
2026-04-28 01:52 -43.47532 172.54843 101 ft 15 kts 315°
2026-04-28 01:52 -43.47551 172.54754 101 ft 0 kts 225°
2026-04-28 01:52 -43.47562 172.54740 103 ft 15 kts 223°
2026-04-28 01:52 -43.47842 172.54411 111 ft 92 kts 219°
2026-04-28 01:53 -43.48554 172.53613 154 ft 165 kts 220°
2026-04-28 01:53 -43.49436 172.52533 932 ft 170 kts 221°
2026-04-28 01:53 -43.50362 172.51463 1850 ft 182 kts 227°
2026-04-28 01:53 -43.51171 172.49941 2317 ft 212 kts 238°
2026-04-28 01:54 -43.52004 172.48099 2678 ft 240 kts 238°
2026-04-28 01:54 -43.52939 172.46102 3359 ft 253 kts 236°
2026-04-28 01:54 -43.53931 172.44079 4276 ft 256 kts 235°
2026-04-28 01:54 -43.54946 172.42040 5252 ft 259 kts 235°
2026-04-28 01:55 -43.55979 172.39988 6246 ft 262 kts 236°
2026-04-28 01:55 -43.57023 172.37922 7255 ft 264 kts 236°
2026-04-28 01:55 -43.58077 172.35840 8208 ft 266 kts 237°
2026-04-28 01:55 -43.59045 172.33647 9155 ft 269 kts 241°
2026-04-28 01:56 -43.59962 172.31379 10091 ft 272 kts 242°
2026-04-28 01:56 -43.60897 172.29029 10609 ft 290 kts 242°
2026-04-28 01:56 -43.61904 172.26505 11055 ft 308 kts 242°
2026-04-28 01:56 -43.62953 172.23882 11799 ft 315 kts 242°
2026-04-28 01:57 -43.64019 172.21218 12669 ft 319 kts 241°
2026-04-28 01:57 -43.65097 172.18527 13553 ft 322 kts 241°
2026-04-28 01:57 -43.66185 172.15811 14380 ft 325 kts 241°
2026-04-28 01:57 -43.67288 172.13056 15080 ft 331 kts 240°
2026-04-28 01:58 -43.68412 172.10248 15764 ft 337 kts 240°
2026-04-28 01:58 -43.69166 172.08358 16214 ft 341 kts 240°
2026-04-28 01:58 -43.70318 172.05470 16906 ft 346 kts 240°
2026-04-28 01:58 -43.71488 172.02533 17586 ft 351 kts 240°
2026-04-28 01:59 -43.72674 171.99555 18263 ft 356 kts 240°
2026-04-28 01:59 -43.73875 171.96536 18876 ft 361 kts 240°
2026-04-28 01:59 -43.75092 171.93473 19492 ft 364 kts 240°
2026-04-28 01:59 -43.76315 171.90393 20129 ft 367 kts 240°
2026-04-28 02:00 -43.77545 171.87292 20768 ft 369 kts 240°
2026-04-28 02:00 -43.78783 171.84165 21394 ft 372 kts 240°
2026-04-28 02:00 -43.80028 171.81021 22018 ft 374 kts 240°
2026-04-28 02:00 -43.81282 171.77849 22639 ft 377 kts 240°
2026-04-28 02:01 -43.82541 171.74659 23245 ft 379 kts 240°
2026-04-28 02:01 -43.83818 171.71453 23816 ft 381 kts 239°
2026-04-28 02:01 -43.85144 171.68255 24298 ft 384 kts 238°
2026-04-28 02:01 -43.86503 171.65063 24765 ft 386 kts 238°
2026-04-28 02:02 -43.87880 171.61859 25229 ft 388 kts 237°
2026-04-28 02:02 -43.89265 171.58644 25675 ft 390 kts 237°
2026-04-28 02:02 -43.90656 171.55404 26071 ft 393 kts 237°
2026-04-28 02:02 -43.92042 171.52164 26198 ft 385 kts 237°
2026-04-28 02:03 -43.93381 171.49017 26217 ft 374 kts 238°
2026-04-28 02:03 -43.94691 171.45929 26215 ft 370 kts 238°
2026-04-28 02:03 -43.95996 171.42853 26210 ft 370 kts 238°
2026-04-28 02:03 -43.97301 171.39772 26215 ft 370 kts 238°
2026-04-28 02:04 -43.98605 171.36690 26210 ft 370 kts 238°
2026-04-28 02:04 -43.99907 171.33608 26215 ft 370 kts 238°
2026-04-28 02:04 -44.01209 171.30523 26215 ft 370 kts 238°
2026-04-28 02:04 -44.02510 171.27437 26208 ft 370 kts 238°
2026-04-28 02:05 -44.03811 171.24348 26214 ft 370 kts 238°
2026-04-28 02:05 -44.05111 171.21256 26211 ft 371 kts 238°
2026-04-28 02:05 -44.06411 171.18164 26208 ft 371 kts 238°
2026-04-28 02:05 -44.07711 171.15067 26209 ft 371 kts 238°
2026-04-28 02:06 -44.09008 171.11972 26217 ft 371 kts 238°
2026-04-28 02:06 -44.10305 171.08875 26208 ft 371 kts 238°
2026-04-28 02:06 -44.11603 171.05773 26212 ft 371 kts 238°
2026-04-28 02:06 -44.12901 171.02669 26208 ft 371 kts 238°
2026-04-28 02:07 -44.14199 170.99560 26209 ft 371 kts 238°
2026-04-28 02:07 -44.15495 170.96453 26207 ft 371 kts 238°
2026-04-28 02:07 -44.16788 170.93348 26209 ft 371 kts 238°
2026-04-28 02:07 -44.18085 170.90232 26210 ft 372 kts 238°
2026-04-28 02:08 -44.19380 170.87117 26213 ft 372 kts 238°
2026-04-28 02:08 -44.20674 170.84001 26216 ft 372 kts 238°
2026-04-28 02:08 -44.21950 170.80925 26220 ft 372 kts 238°
2026-04-28 02:08 -44.23261 170.77759 26223 ft 372 kts 238°
2026-04-28 02:09 -44.24553 170.74637 26214 ft 372 kts 238°
2026-04-28 02:09 -44.25845 170.71511 26220 ft 372 kts 238°
2026-04-28 02:09 -44.27134 170.68387 26217 ft 372 kts 238°
2026-04-28 02:09 -44.28423 170.65259 26217 ft 372 kts 238°
2026-04-28 02:10 -44.29694 170.62173 26219 ft 372 kts 238°
2026-04-28 02:10 -44.30981 170.59043 26223 ft 370 kts 238°
2026-04-28 02:10 -44.32250 170.55953 26225 ft 365 kts 238°
2026-04-28 02:10 -44.33506 170.52891 26225 ft 363 kts 238°
2026-04-28 02:11 -44.34759 170.49838 26223 ft 362 kts 238°
2026-04-28 02:11 -44.36010 170.46784 26225 ft 362 kts 238°
2026-04-28 02:11 -44.37258 170.43732 26229 ft 362 kts 239°
2026-04-28 02:11 -44.38506 170.40679 26233 ft 362 kts 239°
2026-04-28 02:12 -44.39754 170.37624 26104 ft 361 kts 239°
2026-04-28 02:12 -44.40998 170.34574 25869 ft 360 kts 239°
2026-04-28 02:12 -44.42235 170.31538 25624 ft 359 kts 239°
2026-04-28 02:12 -44.43469 170.28505 25382 ft 358 kts 239°
2026-04-28 02:13 -44.44697 170.25486 25136 ft 356 kts 239°
2026-04-28 02:13 -44.45918 170.22480 24905 ft 354 kts 239°
2026-04-28 02:13 -44.47130 170.19490 24675 ft 351 kts 239°
2026-04-28 02:13 -44.48321 170.16550 24417 ft 344 kts 239°
2026-04-28 02:14 -44.49497 170.13644 24022 ft 342 kts 239°
2026-04-28 02:14 -44.50669 170.10748 23560 ft 342 kts 239°
2026-04-28 02:14 -44.51836 170.07861 23108 ft 339 kts 240°
2026-04-28 02:14 -44.52991 170.04998 22695 ft 336 kts 240°
2026-04-28 02:15 -44.55265 169.99355 21896 ft 329 kts 240°
2026-04-28 02:15 -44.56388 169.96565 21477 ft 328 kts 240°
2026-04-28 02:15 -44.57501 169.93796 21077 ft 325 kts 240°
2026-04-28 02:16 -44.58608 169.91039 20675 ft 323 kts 240°
2026-04-28 02:16 -44.59707 169.88301 20275 ft 322 kts 240°
2026-04-28 02:16 -44.60801 169.85569 19873 ft 320 kts 240°
2026-04-28 02:16 -44.61890 169.82851 19464 ft 319 kts 241°
2026-04-28 02:17 -44.62974 169.80140 19064 ft 318 kts 241°
2026-04-28 02:17 -44.64053 169.77438 18672 ft 317 kts 241°
2026-04-28 02:17 -44.65127 169.74748 18246 ft 315 kts 241°
2026-04-28 02:17 -44.66196 169.72069 17848 ft 313 kts 241°
2026-04-28 02:18 -44.67258 169.69403 17454 ft 312 kts 242°
2026-04-28 02:18 -44.68298 169.66788 17071 ft 310 kts 242°
2026-04-28 02:18 -44.69344 169.64153 16682 ft 308 kts 242°
2026-04-28 02:18 -44.70386 169.61530 16284 ft 307 kts 242°
2026-04-28 02:19 -44.71424 169.58914 15891 ft 306 kts 242°
2026-04-28 02:19 -44.72455 169.56312 15507 ft 304 kts 242°
2026-04-28 02:19 -44.73482 169.53718 15115 ft 303 kts 242°
2026-04-28 02:19 -44.74509 169.51125 14614 ft 305 kts 242°
2026-04-28 02:20 -44.75541 169.48514 14124 ft 306 kts 242°
2026-04-28 02:20 -44.76569 169.45910 13687 ft 303 kts 242°
2026-04-28 02:20 -44.77582 169.43341 13314 ft 297 kts 242°
2026-04-28 02:20 -44.78579 169.40812 12949 ft 294 kts 242°
2026-04-28 02:21 -44.79567 169.38302 12578 ft 292 kts 242°
2026-04-28 02:21 -44.80550 169.35804 12200 ft 291 kts 241°
2026-04-28 02:21 -44.81455 169.33261 11744 ft 290 kts 249°
2026-04-28 02:21 -44.82040 169.30563 11427 ft 285 kts 255°
2026-04-28 02:22 -44.82497 169.27900 11275 ft 274 kts 256°
2026-04-28 02:22 -44.82921 169.25332 11057 ft 266 kts 256°
2026-04-28 02:22 -44.83337 169.22809 10802 ft 261 kts 256°
2026-04-28 02:22 -44.83739 169.20370 10696 ft 250 kts 256°
2026-04-28 02:23 -44.84125 169.18033 10572 ft 240 kts 255°
2026-04-28 02:23 -44.84667 169.15864 10418 ft 232 kts 243°
2026-04-28 02:23 -44.85433 169.13891 10170 ft 229 kts 240°
2026-04-28 02:23 -44.86276 169.11998 9862 ft 227 kts 237°
2026-04-28 02:24 -44.87206 169.10225 9613 ft 221 kts 229°
2026-04-28 02:24 -44.88343 169.08876 9504 ft 209 kts 215°
2026-04-28 02:24 -44.89638 169.07983 9221 ft 207 kts 205°
2026-04-28 02:24 -44.90998 169.07305 8876 ft 207 kts 201°
2026-04-28 02:25 -44.92389 169.06752 8526 ft 209 kts 196°
2026-04-28 02:25 -44.93846 169.06534 8177 ft 212 kts 184°
2026-04-28 02:25 -44.95290 169.06608 8012 ft 203 kts 181°
2026-04-28 02:25 -44.96657 169.06735 7865 ft 193 kts 181°
2026-04-28 02:26 -44.97976 169.06846 7643 ft 187 kts 184°
2026-04-28 02:26 -44.99249 169.06723 7414 ft 179 kts 195°
2026-04-28 02:26 -45.00401 169.06250 7195 ft 171 kts 207°
2026-04-28 02:26 -45.01403 169.05469 6942 ft 159 kts 220°
2026-04-28 02:27 -45.02216 169.04464 6681 ft 153 kts 231°
2026-04-28 02:27 -45.02853 169.03271 6408 ft 152 kts 243°
2026-04-28 02:27 -45.03308 169.01933 6123 ft 151 kts 253°
2026-04-28 02:27 -45.03565 169.00514 5859 ft 146 kts 263°
2026-04-28 02:28 -45.03640 168.99102 5582 ft 137 kts 271°
2026-04-28 02:28 -45.03567 168.97807 5289 ft 133 kts 279°
2026-04-28 02:28 -45.03360 168.96543 4921 ft 132 kts 288°
2026-04-28 02:28 -45.03023 168.95337 4534 ft 132 kts 296°
2026-04-28 02:29 -45.02571 168.94207 4210 ft 132 kts 301°
2026-04-28 02:29 -45.02087 168.93112 3857 ft 132 kts 301°
2026-04-28 02:29 -45.01600 168.92017 3462 ft 131 kts 300°
2026-04-28 02:29 -45.01112 168.90917 3311 ft 134 kts 300°
2026-04-28 02:30 -45.00613 168.89784 3296 ft 137 kts 299°
2026-04-28 02:30 -45.00176 168.88594 3298 ft 136 kts 290°
2026-04-28 02:30 -44.99925 168.87316 3285 ft 134 kts 277°
2026-04-28 02:30 -44.99887 168.86014 3111 ft 132 kts 265°
2026-04-28 02:31 -45.00027 168.84732 2764 ft 131 kts 259°
2026-04-28 02:31 -45.00210 168.83481 2450 ft 130 kts 258°
2026-04-28 02:31 -45.00410 168.82234 2170 ft 130 kts 256°
2026-04-28 02:31 -45.00667 168.80997 1977 ft 133 kts 253°
2026-04-28 02:32 -45.00925 168.79740 1814 ft 133 kts 255°
2026-04-28 02:32 -45.01185 168.78496 1614 ft 132 kts 252°
2026-04-28 02:32 -45.01402 168.77260 1364 ft 128 kts 257°
2026-04-28 02:32 -45.01603 168.76045 1245 ft 127 kts 254°
2026-04-28 02:33 -45.01794 168.74895 1175 ft 95 kts 256°
2026-04-28 02:33 -45.01873 168.74404 1178 ft 7 kts 258°
2026-04-28 02:33 -45.01878 168.74369 1181 ft 7 kts 258°
2026-04-28 02:33 -45.01893 168.74271 1182 ft 14 kts 257°
2026-04-28 02:34 -45.01943 168.74121 1177 ft 20 kts 213°
2026-04-28 02:34 -45.01971 168.74100 1178 ft 0 kts 204°
2026-04-28 02:34 -45.01976 168.74097 1178 ft 4 kts 204°
2026-04-28 02:34 -45.01989 168.74089 1177 ft 0 kts 204°
2026-04-28 02:35 -45.02012 168.74074 1179 ft 4 kts 207°
2026-04-28 02:36 -45.02039 168.74045 1175 ft 6 kts 222°
2026-04-28 02:36 -45.02091 168.73987 1171 ft 0 kts 222°
2026-04-28 02:36 -45.02096 168.73978 1173 ft 3 kts 229°
2026-04-28 02:36 -45.02111 168.73962 1174 ft 0 kts 210°